598  
ASUS41 KCLE 170312  
RWRCLE  
OHIO REGIONAL WEATHER ROUNDUP  
NATIONAL WEATHER SERVICE WILMINGTON, OH  
1100 PM EDT TUE OCT 16 2018  
 
NOTE: "FAIR" INDICATES FEW OR NO CLOUDS BELOW 12,000 FEET WITH NO  
SIGNIFICANT WEATHER AND/OR S TO VISIBILITY
.  
 
OHZ001>008-015>018-024>027-034-035-043-044-170400-  
NORTHWEST OHIO  
 
CITY SKY/WX TMP DP RH WIND PRES REMARKS
 
DEFIANCE FAIR 46 31 55 SW7 30.06R  
FINDLAY FAIR 46 35 65 SW9 30.07R  
TOLEDO EXPRESS FAIR 49 28 44 SW10 30.04R  
TOLEDO EXEC FAIR 44 31 60 SW9 30.05S  
LIMA FAIR 45 34 65 SW13 30.09R  

 
 
OHZ009>014-019>023-028>033-038-089-170400-  
NORTHEAST OHIO  
 
CITY SKY/WX TMP DP RH WIND PRES REMARKS
 
CLE-HOPKINS FAIR 47 33 58 SW12 30.07R  
CLE-LAKEFRONT FAIR 49 31 49 SW20G31 30.04R  
CUY CO. ARPT CLEAR 46 32 57 SW18G25 30.04R  
LORAIN-ELYRIA FAIR 46 30 53 W9 30.07R  
ASHTABULA FAIR 44 35 70 SW8 30.03S  
AKRON-CANTON FAIR 45 34 65 SW9 30.07S  
WOOSTER FAIR 45 34 65 SW14 30.08R  
MANSFIELD FAIR 45 33 63 SW14G22 30.08R  
YOUNGSTOWN FAIR 45 36 70 SW14 30.05R  

 
 
OHZ042-051>053-060>062-070>072-077>081-170400-  
SOUTHWEST OHIO  
 
CITY SKY/WX TMP DP RH WIND PRES REMARKS
 
CINC-COVINGTON MOCLDY 45 38 76 SW8 30.18R  
CINC-LUNKEN FAIR 44 39 82 SW8 30.20R  
HAMILTON FAIR 43 38 82 W6 30.19R  
DAYTON FAIR 43 35 73 SW14 30.15R  
WRIGHT-PAT AFB NOT AVBL  
DAYTON GENERAL FAIR 47 35 63 SW12 30.16R  
WILMINGTON FAIR 42 37 82 SW10 30.16R  

 
 
OHZ036-037-039>041-045>050-054>059-063>069-073>076-082>088-170400-  
CENTRAL AND SOUTHEAST OHIO  
 
CITY SKY/WX TMP DP RH WIND PRES REMARKS
 
COLUMBUS FAIR 47 36 65 SW8 30.13R  
OSU AIRPORT FAIR 44 36 73 SW9 30.12S  
BOLTON FIELD FAIR 41 37 84 SW7 30.14R  
RICKENBACK AFB FAIR 42 36 81 S6 30.14S  
NEWARK FAIR 45 37 73 SW3 30.13R  
MARION FAIR 45 34 65 SW12 30.11R  
LANCASTER FAIR 45 38 76 SW8 30.15R  
ZANESVILLE FAIR 43 37 79 S6 30.13R  
NEW PHILLY FAIR 46 37 71 VRB6 30.11S  

 
 
 
CLICK HERE TO GO TO PREVIOUS BULLETINS.

The Nexlab OH Page
The Nexlab PA Page Main Text Page